Shelbyville, IN

9:00 PM EDT on September 24, 2017 (GMT -0400)
Shelbyville Municipal

Weather History for KGEZ - November, 2012

Change the Weather History Date:

Wednesday, November 7, 2012

  Actual Average Record
Temperature  
Mean Temperature 43 °F 47 °F  
Max Temperature 53 °F 58 °F 69 °F (2016)
Min Temperature 33 °F 37 °F 24 °F (1998)
Degree Days  
Heating Degree Days 22 18  
Month to date heating degree days 178 117  
Since 1 July heating degree days 627 552  
Cooling Degree Days 0 0  
Month to date cooling degree days 0 0  
Year to date cooling degree days 1417 913  
Moisture  
Dew Point 36 °F    
Average Humidity 70    
Maximum Humidity 92    
Minimum Humidity 48    
Precipitation  
Precipitation T in 0.12 in 0.43 in (2006)
Month to date precipitation 0.06 0.92  
Year to date precipitation 25.14 37.48  
Sea Level Pressure  
Sea Level Pressure 29.97 in    
Wind  
Wind Speed 5 mph (NNE)    
Max Wind Speed 12 mph    
Max Gust Speed 15 mph    
Visibility 6 miles    
Events Rain    
T = Trace of Precipitation, MM = Missing Value Source: NWS Daily Summary

Daily Weather History Graph

Daily Weather History Graph

Search for Another Location

Airport or City:

Trip Planner

Search our weather history database for the weather conditions in past years. The results will help you decide how hot, cold, wet, or windy it might be!

Date:

Astronomy

Nov. 07, 2012 Rise Set
Actual Time 7:18 AM EST 5:34 PM EST
Civil Twilight 6:50 AM EST 6:02 PM EST
Nautical Twilight 6:18 AM EST 6:34 PM EST
Astronomical Twilight 5:46 AM EST 7:06 PM EST
Moon 12:13 AM EST (11/7) 1:41 PM EST (11/7)
Length of Visible Light 11h 12m
Length of Day
10h 15m
Last Quarter, 43% of the Moon is Illuminated
Nov 7
Last Quarter
Nov 13
New
Nov 20
First Quarter
Nov 28
Full
Dec 6
Last Quarter

Hourly Weather History & Observations

Time (EST) Temp. Windchill Dew Point Humidity Pressure Visibility Wind Dir Wind Speed Gust Speed Precip Events Conditions
12:53 AM 41.0 °F 38.0 °F 37.9 °F 89% 29.90 in 5.0 mi NW 4.6 mph - 0.00 in   Overcast
1:53 AM 39.9 °F - 37.0 °F 89% 29.89 in 4.0 mi Calm Calm - N/A   Overcast
2:53 AM 39.9 °F 36.7 °F 37.9 °F 93% 29.89 in 4.0 mi NE 4.6 mph - N/A   Overcast
3:53 AM 39.9 °F - 37.9 °F 93% 29.88 in 3.0 mi Calm Calm - 0.00 in   Overcast
4:34 AM 41.0 °F 38.0 °F 37.4 °F 87% 29.88 in 3.0 mi ENE 4.6 mph - 0.00 in Rain Light Rain
4:53 AM 41.0 °F 39.0 °F 39.0 °F 93% 29.89 in 3.0 mi NE 3.5 mph - 0.00 in Rain Light Rain
5:02 AM 41.0 °F 38.0 °F 37.4 °F 87% 29.88 in 3.0 mi NE 4.6 mph - 0.00 in   Overcast
5:53 AM 41.0 °F 37.1 °F 37.9 °F 89% 29.89 in 4.0 mi ENE 5.8 mph - 0.00 in Rain Light Rain
6:53 AM 41.0 °F 38.0 °F 37.9 °F 89% 29.91 in 4.0 mi NE 4.6 mph - 0.00 in Rain Light Rain
7:15 AM 41.0 °F 39.0 °F 37.4 °F 87% 29.91 in 3.0 mi NE 3.5 mph - 0.00 in Rain Light Rain
7:53 AM 41.0 °F 37.1 °F 37.9 °F 89% 29.94 in 2.5 mi NE 5.8 mph - 0.00 in Rain Light Rain
8:05 AM 41.0 °F 37.1 °F 37.4 °F 87% 29.93 in 2.5 mi NE 5.8 mph - 0.00 in Rain Light Rain
8:17 AM 41.0 °F 38.0 °F 37.4 °F 87% 29.93 in 3.0 mi NE 4.6 mph - 0.00 in Rain Light Rain
8:30 AM 42.8 °F 40.1 °F 39.2 °F 87% 29.94 in 3.0 mi NE 4.6 mph - 0.00 in Rain Light Rain
8:53 AM 42.1 °F 39.2 °F 39.0 °F 89% 29.96 in 4.0 mi NNE 4.6 mph - 0.00 in Rain Light Rain
9:01 AM 42.8 °F 40.1 °F 39.2 °F 87% 29.95 in 4.0 mi NNE 4.6 mph - 0.00 in Rain Light Rain
9:53 AM 44.1 °F 40.8 °F 39.0 °F 82% 29.97 in 5.0 mi NNE 5.8 mph - 0.00 in   Haze
10:53 AM 46.0 °F 41.9 °F 39.9 °F 79% 29.99 in 6.0 mi ENE 8.1 mph - N/A   Haze
11:53 AM 48.9 °F - 37.9 °F 66% 29.99 in 10.0 mi ENE 9.2 mph - N/A   Overcast
12:53 PM 51.1 °F - 36.0 °F 56% 29.99 in 10.0 mi Variable 3.5 mph - N/A   Scattered Clouds
1:53 PM 51.1 °F - 35.1 °F 54% 29.98 in 9.0 mi North 4.6 mph - N/A   Mostly Cloudy
2:53 PM 52.0 °F - 33.1 °F 49% 29.99 in 10.0 mi North 8.1 mph - N/A   Partly Cloudy
3:53 PM 52.0 °F - 32.0 °F 47% 30.00 in 10.0 mi North 9.2 mph - N/A   Clear
4:53 PM 48.9 °F - 33.1 °F 54% 30.03 in 10.0 mi NNW 9.2 mph - N/A   Clear
5:53 PM 42.1 °F 37.7 °F 33.1 °F 70% 30.05 in 10.0 mi NNW 6.9 mph - N/A   Clear
6:53 PM 41.0 °F 36.4 °F 32.0 °F 70% 30.08 in 10.0 mi North 6.9 mph - N/A   Clear
7:53 PM 41.0 °F 37.1 °F 30.0 °F 65% 30.10 in 10.0 mi North 5.8 mph - N/A   Clear
8:53 PM 37.0 °F - 28.9 °F 73% 30.10 in 10.0 mi Calm Calm - N/A   Clear
9:53 PM 34.0 °F 28.8 °F 28.9 °F 82% 30.12 in 9.0 mi NW 5.8 mph - N/A   Clear
10:53 PM 36.0 °F 33.3 °F 28.9 °F 76% 30.13 in 10.0 mi NNW 3.5 mph - N/A   Clear
11:53 PM 35.1 °F 32.2 °F 28.9 °F 78% 30.13 in 10.0 mi NW 3.5 mph - N/A   Clear